Погода в Юксарах

Россия / Республика Марий Эл     56°19′00″N   47°02′08″E
темп.,
°C
ветер,
м/с
пор.,
м/с
влажн.,
%
обл.,
%
осадки,
мм/ч
давл.,
гПа
погр.,
м
8 марта, пн
пн800:00−5ююз51291100 0.7 992715
03:00−5ю3996100 1.3 990481
06:00−6з51093100 0.6 990511
09:00−8з5108891 0.6 994484
12:00−5зюз478992 0.2 996795
15:00−5зюз578696 0.3 997848
18:00−10юз339283 0.0 99849
21:00−12зсз369587 0.0 100095
9 марта, вт
вт900:00−14з369638 0.0 1002122
03:00−15з259867 0.1 1005115
06:00−17з239896 0.1 100765
09:00−14зсз249694 0.1 1009239
12:00−11сз2390100 0.1 1010532
15:00−10ссз3489100 0.3 1011687
18:00−13с3795100 0.1 1012243
21:00−14ссз389596 0.2 1014345
10 марта, ср
ср1000:00−18ссз399795 0.0 1014280
03:00−21ссз489797 0.1 1015309
06:00−25ссз399698 0.0 1017275
09:00−24ссз489590 0.0 1019364
12:00−20ссз489087 0.0 1020571
15:00−17ссз478775 0.0 1021668
18:00−21ссз339373 0.0 102256
21:00−23сз339637 0.0 102357
11 марта, чт
чт1100:00−23зсз3410071 0.0 102375
03:00−24зсз379965 0.0 1023127
06:00−23з499781 0.0 1023237
09:00−18зсз489591 0.1 1023365
12:00−12зсз4894100 0.0 1023451
15:00−8сз51089100 0.1 1023730
18:00−9сз4118982 0.0 1023332
21:00−12зсз4119242 0.0 1025268
12 марта, пт
пт1200:00−14зсз37930 0.0 1027137
03:00−17зсз33950 0.0 102868
06:00−18з33930 0.0 102956
09:00−14з35910 0.0 1030230
12:00−9зюз36900 0.0 1029368
15:00−7юз48850 0.0 1028523
18:00−12юз39930 0.0 1028210
21:00−14ююз310920 0.0 1028236